Hourly Data Report for October 01, 2017

All times are specified in Local Standard Time (LST). Add 1 hour to adjust for Daylight Saving Time where and when it is observed.

CLEARWATER AUTO
BRITISH COLUMBIA

51°39'09.300" N
120°04'56.400" W
438.00 m
1161650
71645
VCW

Download Data

Hourly Data (October 2017)
Hourly Data Report for October 1, 2017
Temp Definition
°C
Dew Point Temp Definition
°C
Rel Hum Definition
%
Wind Dir Definition
10's deg

Wind Spd Definition
km/h
Visibility Definition
km
Stn Press Definition
kPa
Hmdx Definition


Wind Chill Definition


Weather Definition


TIME
00:00 5.6 2.3 79 34 3   96.14     LegendNANA
01:00 5.2 2.4 82 30 2   96.18     LegendNANA
02:00 5.9 3.1 83 0 1   96.20     LegendNANA
03:00 6.0 3.3 83 34 4   96.21     LegendNANA
04:00 6.0 3.4 84 0 1   96.25     LegendNANA
05:00 5.3 2.9 85 4 1   96.28     LegendNANA
06:00 4.9 2.4 84 33 5   96.31     LegendNANA
07:00 4.6 2.3 85   0   96.36     LegendNANA
08:00 6.7 3.7 81 0 1   96.38     LegendNANA
09:00 9.5 3.5 67 6 5   96.37     LegendNANA
10:00 9.7 3.6 66 5 4   96.38     LegendNANA
11:00 11.2 0.7 48 8 1   96.39     LegendNANA
12:00 11.8 0.6 46 25 9   96.41     LegendNANA
13:00 11.7 2.2 52 6 6   96.42     LegendNANA
14:00 13.0 1.6 46 21 6   96.39     LegendNANA
15:00 10.1 5.6 74 18 3   96.42     LegendNANA
16:00 9.8 5.3 74 5 3   96.46     LegendNANA
17:00 10.5 4.9 68 9 4   96.45     LegendNANA
18:00 8.5 5.1 79 7 8   96.57     LegendNANA
19:00 7.0 4.5 84 33 5   96.62     LegendNANA
20:00 5.0 2.4 83 29 3   96.67     LegendNANA
21:00 4.2 1.9 85 36 2   96.71     LegendNANA
22:00 3.4 1.0 85 33 1   96.72     LegendNANA
23:00 4.5 2.6 87 5 2   96.76     LegendNANA

Notes on Data Quality.

Legend

  • E = Estimated
  • M = Missing
  • NA = Not Available
  • ‡ = Partner data that is not subject to review by the National Climate Archives
Date modified: